CDT,Max TemperatureF,Mean TemperatureF,Min TemperatureF,Max Dew PointF,MeanDew PointF,Min DewpointF,Max Humidity, Mean Humidity, Min Humidity, Max Sea Level PressureIn, Mean Sea Level PressureIn, Min Sea Level PressureIn, Max VisibilityMiles, Mean VisibilityMiles, Min VisibilityMiles, Max Wind SpeedMPH, Mean Wind SpeedMPH, Max Gust SpeedMPH,PrecipitationIn, CloudCover, Events, WindDirDegrees
2013-10-1,66,57,46,54,40,36,100,55,32,29.85,29.65,29.47,10,10,3,30,15,41,0.04,0,Rain,251
2013-10-2,62,52,42,46,41,36,100,66,45,29.98,29.93,29.85,10,10,9,13,6,17,0.00,2,Rain,224
2013-10-3,57,46,35,45,40,34,100,75,48,30.23,30.07,29.97,10,10,10,16,8,23,0.00,0,,343
2013-10-4,44,40,37,36,33,32,93,75,61,30.35,30.29,30.23,10,10,9,21,13,31,0.00,1,,7
2013-10-5,46,40,35,39,35,32,93,82,71,30.23,30.07,29.96,10,9,1,17,12,25,0.03,7,Rain,9
2013-10-6,68,50,32,39,35,28,100,65,30,29.98,29.88,29.79,10,10,9,17,8,23,0.00,1,,307
2013-10-7,62,48,35,43,39,34,100,68,45,29.96,29.87,29.71,10,10,3,14,6,21,0.00,0,,225
2013-10-8,69,56,44,50,44,37,93,71,43,29.75,29.63,29.56,10,10,3,14,8,17,0.00,0,,192
2013-10-9,69,55,41,45,39,36,87,61,33,30.01,29.93,29.76,10,9,4,10,5,,0.00,0,,306
2013-10-10,68,55,42,54,45,37,88,72,52,30.00,29.84,29.69,10,9,1,12,5,16,0.00,0,,15
2013-10-11,68,60,51,59,54,48,94,84,60,29.69,29.51,29.24,10,9,1,22,6,31,0.05,4,Rain-Thunderstorm,132
2013-10-12,55,45,35,54,42,34,94,77,51,30.15,29.71,29.25,10,9,2,23,13,32,0.00,6,Rain,296
2013-10-13,55,44,33,37,32,28,93,70,36,30.36,30.29,30.15,10,10,8,12,5,17,0.00,0,,278
2013-10-14,44,38,32,43,39,32,100,93,87,30.37,30.30,30.23,10,6,2,9,2,,0.16,7,Rain,19
2013-10-15,46,38,30,41,35,28,100,86,61,30.23,30.12,30.00,10,9,3,18,9,24,0.03,4,Rain,355
2013-10-16,57,44,30,41,36,28,100,75,48,30.00,29.84,29.78,10,10,4,18,6,25,0.00,1,,266
2013-10-17,48,40,32,39,31,25,87,66,40,29.97,29.93,29.85,10,10,6,17,11,22,0.00,5,,321
2013-10-18,44,37,30,36,31,27,93,78,61,29.92,29.85,29.71,10,10,2,15,7,21,0.01,3,Rain,271
2013-10-19,39,36,33,36,32,30,93,84,70,29.77,29.73,29.69,10,10,3,16,9,23,0.00,6,Rain-Snow,311
2013-10-20,37,34,30,34,28,21,100,78,60,29.96,29.82,29.68,10,8,2,22,8,31,0.27,8,Rain-Snow,343
2013-10-21,35,30,26,27,23,19,80,72,64,30.00,29.96,29.94,10,10,5,18,12,28,0.00,6,,315
2013-10-22,39,32,26,30,26,23,93,76,56,30.09,30.05,30.00,10,10,5,14,7,17,0.00,8,Snow,326
2013-10-23,37,30,24,32,27,21,93,80,65,30.15,30.10,30.04,10,10,3,13,5,,0.00,7,Rain-Snow,315
2013-10-24,41,36,30,32,28,27,100,77,57,30.26,30.22,30.15,10,10,9,14,8,22,0.00,5,Rain,294
2013-10-25,57,42,28,37,29,25,93,66,38,30.19,29.89,29.68,10,10,10,29,13,40,0.00,2,Rain,265
2013-10-26,41,36,32,32,27,25,80,65,53,30.17,30.04,29.77,10,10,10,20,13,26,0.00,4,,289
2013-10-27,42,32,23,30,25,16,87,67,52,30.44,30.01,29.68,10,10,10,24,13,32,0.00,2,,347
2013-10-28,30,24,17,18,15,12,93,72,47,30.63,30.55,30.45,10,10,8,13,8,17,0.00,1,,7
2013-10-29,37,26,14,19,17,12,93,68,41,30.50,30.27,30.11,10,10,6,9,3,,0.00,0,,187
2013-10-30,44,34,23,32,27,19,93,75,61,30.10,29.88,29.65,10,10,9,14,5,,0.00,7,,194
2013-10-31,46,37,28,32,30,27,100,80,57,29.63,29.50,29.43,10,9,4,10,5,,0.00,1,,281